2007 Bogus South Gauge ,,,
Hourly Stream Data (Summary),,,
,,,
Dataset Reference Format:,,,
,"[Year of data collection] Stream data from Dry Creek Experimental Watershed. Watershed Process Research Group, Boise State University",,
, URL: earth.boisestate.edu/drycreek. Multi-paged. [month and day of data download].,,
,,,
Dataset Header Description,,,
,Column(s)| Variable| Description| [units],,
,1st Column  | DateTime| Time stamp of variable collection time [MM/DD/YY  hr:mm],,
,2nd Column|Discharge -L/s|Stream Discharge Averaged* measurements [L/s],,
,3rd Column |StreamTemp-C| Stream Temperature [C],,
,4th Column |StreamEC-mS/cm| Stream Electrical Conductivity [mS/cm],,
,,,
,* Averaged values of instaneous measurments taken at the half hour,,
,**Note: -6999 denotes missing data,,
,,,
,,,
DateTime,Discharge-L/s,StreamTemp-C,StreamEC-mS/cm
1/1/2007 0:00,2.1,0.9,-6999
1/1/2007 1:00,2.1,0.8,-6999
1/1/2007 2:00,2.1,0.6,-6999
1/1/2007 3:00,2.2,0.5,-6999
1/1/2007 4:00,2.2,0.4,-6999
1/1/2007 5:00,2.1,0.4,-6999
1/1/2007 6:00,2.1,0.3,-6999
1/1/2007 7:00,2.1,0.3,-6999
1/1/2007 8:00,2.0,0.2,-6999
1/1/2007 9:00,2.0,0.2,-6999
1/1/2007 10:00,1.8,0.2,-6999
1/1/2007 11:00,1.5,0.5,-6999
1/1/2007 12:00,1.3,0.9,-6999
1/1/2007 13:00,1.2,1.1,-6999
1/1/2007 14:00,1.3,1.3,-6999
1/1/2007 15:00,1.7,1.4,-6999
1/1/2007 16:00,1.8,1.4,-6999
1/1/2007 17:00,1.8,1.4,-6999
1/1/2007 18:00,1.9,1.3,-6999
1/1/2007 19:00,1.9,1.2,-6999
1/1/2007 20:00,1.9,1.1,-6999
1/1/2007 21:00,1.9,1.2,-6999
1/1/2007 22:00,1.9,1.2,-6999
1/1/2007 23:00,1.9,1.3,-6999
1/2/2007 0:00,1.9,1.3,-6999
1/2/2007 1:00,1.9,1.4,-6999
1/2/2007 2:00,1.9,1.4,-6999
1/2/2007 3:00,2.0,1.5,-6999
1/2/2007 4:00,2.0,1.5,-6999
1/2/2007 5:00,2.0,1.6,-6999
1/2/2007 6:00,1.9,1.6,-6999
1/2/2007 7:00,2.0,1.6,-6999
1/2/2007 8:00,2.0,1.6,-6999
1/2/2007 9:00,2.0,1.6,-6999
1/2/2007 10:00,1.9,1.7,-6999
1/2/2007 11:00,1.8,1.8,-6999
1/2/2007 12:00,1.7,2.0,-6999
1/2/2007 13:00,1.7,2.0,-6999
1/2/2007 14:00,1.8,2.0,-6999
1/2/2007 15:00,1.9,2.0,-6999
1/2/2007 16:00,2.0,2.0,-6999
1/2/2007 17:00,2.2,1.9,-6999
1/2/2007 18:00,2.2,1.9,-6999
1/2/2007 19:00,2.2,1.9,-6999
1/2/2007 20:00,2.2,1.8,-6999
1/2/2007 21:00,2.2,1.8,-6999
1/2/2007 22:00,2.3,1.8,-6999
1/2/2007 23:00,2.3,1.8,-6999
1/3/2007 0:00,2.4,1.8,-6999
1/3/2007 1:00,2.4,1.8,-6999
1/3/2007 2:00,2.3,1.8,-6999
1/3/2007 3:00,2.4,1.8,-6999
1/3/2007 4:00,2.5,1.8,-6999
1/3/2007 5:00,2.6,1.8,-6999
1/3/2007 6:00,2.6,1.8,-6999
1/3/2007 7:00,2.5,1.9,-6999
1/3/2007 8:00,2.5,1.9,-6999
1/3/2007 9:00,2.5,1.9,-6999
1/3/2007 10:00,2.4,1.9,-6999
1/3/2007 11:00,2.4,2.0,-6999
1/3/2007 12:00,2.5,2.0,-6999
1/3/2007 13:00,2.6,1.9,-6999
1/3/2007 14:00,2.6,1.9,-6999
1/3/2007 15:00,2.6,1.8,-6999
1/3/2007 16:00,2.6,1.6,-6999
1/3/2007 17:00,2.7,1.6,-6999
1/3/2007 18:00,3.1,1.6,-6999
1/3/2007 19:00,3.9,1.2,-6999
1/3/2007 20:00,4.5,0.8,-6999
1/3/2007 21:00,4.4,0.8,-6999
1/3/2007 22:00,4.1,0.8,-6999
1/3/2007 23:00,3.9,0.7,-6999
1/4/2007 0:00,3.5,0.8,-6999
1/4/2007 1:00,3.3,0.9,-6999
1/4/2007 2:00,3.3,0.9,-6999
1/4/2007 3:00,3.1,1.1,-6999
1/4/2007 4:00,3.0,1.2,-6999
1/4/2007 5:00,3.0,1.2,-6999
1/4/2007 6:00,2.9,1.2,-6999
1/4/2007 7:00,2.9,1.2,-6999
1/4/2007 8:00,2.9,1.2,-6999
1/4/2007 9:00,2.8,1.2,-6999
1/4/2007 10:00,2.7,1.3,-6999
1/4/2007 11:00,2.7,1.4,-6999
1/4/2007 12:00,2.3,1.6,-6999
1/4/2007 13:00,2.0,1.6,-6999
1/4/2007 14:00,2.4,1.6,-6999
1/4/2007 15:00,2.6,1.7,-6999
1/4/2007 16:00,2.7,1.6,-6999
1/4/2007 17:00,2.8,1.4,-6999
1/4/2007 18:00,2.8,1.3,-6999
1/4/2007 19:00,2.7,1.2,-6999
1/4/2007 20:00,2.6,1.1,-6999
1/4/2007 21:00,2.6,0.8,-6999
1/4/2007 22:00,2.6,0.4,-6999
1/4/2007 23:00,2.5,0.1,-6999
1/5/2007 0:00,2.3,0.0,-6999
1/5/2007 1:00,2.4,0.2,-6999
1/5/2007 2:00,2.4,0.2,-6999
1/5/2007 3:00,2.4,0.2,-6999
1/5/2007 4:00,2.4,0.3,-6999
1/5/2007 5:00,2.3,0.2,-6999
1/5/2007 6:00,2.2,0.1,-6999
1/5/2007 7:00,2.2,0.0,-6999
1/5/2007 8:00,2.1,-0.1,-6999
1/5/2007 9:00,2.1,-0.2,-6999
1/5/2007 10:00,2.0,-0.1,-6999
1/5/2007 11:00,1.7,0.1,-6999
1/5/2007 12:00,1.4,0.2,-6999
1/5/2007 13:00,1.1,0.4,-6999
1/5/2007 14:00,1.3,0.6,-6999
1/5/2007 15:00,1.7,0.6,-6999
1/5/2007 16:00,1.9,0.5,-6999
1/5/2007 17:00,2.1,0.4,-6999
1/5/2007 18:00,2.3,0.2,-6999
1/5/2007 19:00,2.3,0.0,-6999
1/5/2007 20:00,2.2,0.0,-6999
1/5/2007 21:00,2.2,0.1,-6999
1/5/2007 22:00,2.1,0.2,-6999
1/5/2007 23:00,2.1,0.3,-6999
1/6/2007 0:00,2.1,0.3,-6999
1/6/2007 1:00,2.2,0.4,-6999
1/6/2007 2:00,2.2,0.4,-6999
1/6/2007 3:00,2.2,0.4,-6999
1/6/2007 4:00,2.3,0.1,-6999
1/6/2007 5:00,2.4,-0.1,-6999
1/6/2007 6:00,2.4,0.1,-6999
1/6/2007 7:00,2.4,0.3,-6999
1/6/2007 8:00,2.4,0.4,-6999
1/6/2007 9:00,2.0,0.0,-6999
1/6/2007 10:00,1.8,-0.5,-6999
1/6/2007 11:00,1.8,-0.4,-6999
1/6/2007 12:00,1.9,-0.3,-6999
1/6/2007 13:00,1.8,0.0,-6999
1/6/2007 14:00,1.4,0.3,-6999
1/6/2007 15:00,1.7,0.5,-6999
1/6/2007 16:00,2.0,0.5,-6999
1/6/2007 17:00,2.1,0.6,-6999
1/6/2007 18:00,2.1,0.5,-6999
1/6/2007 19:00,2.3,0.4,-6999
1/6/2007 20:00,2.3,0.2,-6999
1/6/2007 21:00,2.2,0.1,-6999
1/6/2007 22:00,2.1,0.0,-6999
1/6/2007 23:00,2.1,0.0,-6999
1/7/2007 0:00,2.1,-0.1,-6999
1/7/2007 1:00,2.1,-0.2,-6999
1/7/2007 2:00,2.0,-0.2,-6999
1/7/2007 3:00,2.0,-0.2,-6999
1/7/2007 4:00,2.1,-0.2,-6999
1/7/2007 5:00,2.0,-0.1,-6999
1/7/2007 6:00,2.0,0.0,-6999
1/7/2007 7:00,1.9,0.1,-6999
1/7/2007 8:00,1.8,0.3,-6999
1/7/2007 9:00,1.8,0.4,-6999
1/7/2007 10:00,1.8,0.6,-6999
1/7/2007 11:00,1.7,0.8,-6999
1/7/2007 12:00,1.7,1.0,-6999
1/7/2007 13:00,1.6,1.2,-6999
1/7/2007 14:00,1.5,1.3,-6999
1/7/2007 15:00,1.6,1.3,-6999
1/7/2007 16:00,1.8,1.3,-6999
1/7/2007 17:00,1.9,1.3,-6999
1/7/2007 18:00,1.8,1.3,-6999
1/7/2007 19:00,1.8,1.3,-6999
1/7/2007 20:00,1.8,1.2,-6999
1/7/2007 21:00,1.8,1.2,-6999
1/7/2007 22:00,1.8,1.2,-6999
1/7/2007 23:00,1.8,1.2,-6999
1/8/2007 0:00,1.8,1.3,-6999
1/8/2007 1:00,1.8,1.3,-6999
1/8/2007 2:00,1.7,1.4,-6999
1/8/2007 3:00,1.7,1.4,-6999
1/8/2007 4:00,1.8,1.4,-6999
1/8/2007 5:00,1.7,1.4,-6999
1/8/2007 6:00,1.7,1.4,-6999
1/8/2007 7:00,1.7,1.4,-6999
1/8/2007 8:00,1.8,1.5,-6999
1/8/2007 9:00,1.7,1.6,-6999
1/8/2007 10:00,1.6,1.6,-6999
1/8/2007 11:00,1.6,1.7,-6999
1/8/2007 12:00,1.5,1.8,-6999
1/8/2007 13:00,1.5,1.9,-6999
1/8/2007 14:00,1.5,2.0,-6999
1/8/2007 15:00,1.5,2.0,-6999
1/8/2007 16:00,1.6,2.0,-6999
1/8/2007 17:00,1.7,2.0,-6999
1/8/2007 18:00,1.7,2.0,-6999
1/8/2007 19:00,1.7,1.9,-6999
1/8/2007 20:00,1.8,1.9,-6999
1/8/2007 21:00,1.8,1.8,-6999
1/8/2007 22:00,1.8,1.7,-6999
1/8/2007 23:00,1.9,1.6,-6999
1/9/2007 0:00,1.9,1.5,-6999
1/9/2007 1:00,1.9,1.4,-6999
1/9/2007 2:00,1.9,1.4,-6999
1/9/2007 3:00,1.9,1.3,-6999
1/9/2007 4:00,2.0,1.3,-6999
1/9/2007 5:00,2.0,1.2,-6999
1/9/2007 6:00,2.0,1.2,-6999
1/9/2007 7:00,2.0,1.2,-6999
1/9/2007 8:00,2.0,1.2,-6999
1/9/2007 9:00,2.1,1.2,-6999
1/9/2007 10:00,1.9,1.3,-6999
1/9/2007 11:00,1.8,1.6,-6999
1/9/2007 12:00,1.4,1.9,-6999
1/9/2007 13:00,1.3,2.2,-6999
1/9/2007 14:00,1.5,2.3,-6999
1/9/2007 15:00,1.8,2.2,-6999
1/9/2007 16:00,2.3,2.1,-6999
1/9/2007 17:00,2.4,2.0,-6999
1/9/2007 18:00,2.5,1.9,-6999
1/9/2007 19:00,2.5,1.9,-6999
1/9/2007 20:00,2.5,1.8,-6999
1/9/2007 21:00,2.5,1.7,-6999
1/9/2007 22:00,2.5,1.7,-6999
1/9/2007 23:00,2.6,1.7,-6999
1/10/2007 0:00,2.6,1.7,-6999
1/10/2007 1:00,2.6,1.7,-6999
1/10/2007 2:00,2.6,1.8,-6999
1/10/2007 3:00,2.6,1.8,-6999
1/10/2007 4:00,2.6,1.8,-6999
1/10/2007 5:00,2.7,1.8,-6999
1/10/2007 6:00,2.8,1.8,-6999
1/10/2007 7:00,2.8,1.8,-6999
1/10/2007 8:00,2.7,1.8,-6999
1/10/2007 9:00,2.7,1.7,-6999
1/10/2007 10:00,2.7,1.4,-6999
1/10/2007 11:00,2.6,1.1,-6999
1/10/2007 12:00,2.6,1.2,-6999
1/10/2007 13:00,2.8,1.3,-6999
1/10/2007 14:00,2.8,1.3,-6999
1/10/2007 15:00,2.8,1.2,-6999
1/10/2007 16:00,2.8,1.1,-6999
1/10/2007 17:00,2.9,1.0,-6999
1/10/2007 18:00,3.0,0.9,-6999
1/10/2007 19:00,3.0,0.8,-6999
1/10/2007 20:00,3.0,0.7,-6999
1/10/2007 21:00,3.0,0.6,-6999
1/10/2007 22:00,3.0,0.4,-6999
1/10/2007 23:00,3.1,0.2,-6999
1/11/2007 0:00,3.1,0.0,-6999
1/11/2007 1:00,3.1,-0.3,-6999
1/11/2007 2:00,3.2,-0.5,-6999
1/11/2007 3:00,3.1,-0.5,-6999
1/11/2007 4:00,2.9,-0.5,-6999
1/11/2007 5:00,2.9,-0.5,-6999
1/11/2007 6:00,2.9,-0.5,-6999
1/11/2007 7:00,2.8,-0.5,-6999
1/11/2007 8:00,2.8,-0.5,-6999
1/11/2007 9:00,2.7,-0.5,-6999
1/11/2007 10:00,2.7,-0.4,-6999
1/11/2007 11:00,2.6,-0.4,-6999
1/11/2007 12:00,2.4,-0.3,-6999
1/11/2007 13:00,2.1,-0.2,-6999
1/11/2007 14:00,2.1,-0.1,-6999
1/11/2007 15:00,2.5,0.0,-6999
1/11/2007 16:00,2.6,0.1,-6999
1/11/2007 17:00,2.7,-0.1,-6999
1/11/2007 18:00,2.8,-0.2,-6999
1/11/2007 19:00,2.8,-0.4,-6999
1/11/2007 20:00,2.8,-0.5,-6999
1/11/2007 21:00,2.8,-0.6,-6999
1/11/2007 22:00,2.7,-0.6,-6999
1/11/2007 23:00,2.8,-0.6,-6999
1/12/2007 0:00,2.8,-0.6,-6999
1/12/2007 1:00,2.8,-0.6,-6999
1/12/2007 2:00,2.7,-0.6,-6999
1/12/2007 3:00,2.7,-0.7,-6999
1/12/2007 4:00,2.7,-0.7,-6999
1/12/2007 5:00,2.6,-0.7,-6999
1/12/2007 6:00,2.6,-0.7,-6999
1/12/2007 7:00,2.8,-0.7,-6999
1/12/2007 8:00,2.8,-0.7,-6999
1/12/2007 9:00,2.9,-0.7,-6999
1/12/2007 10:00,2.8,-0.7,-6999
1/12/2007 11:00,2.5,-0.6,-6999
1/12/2007 12:00,1.7,-0.6,-6999
1/12/2007 13:00,1.4,-0.6,-6999
1/12/2007 14:00,1.6,-0.6,-6999
1/12/2007 15:00,2.0,-0.6,-6999
1/12/2007 16:00,2.5,-0.6,-6999
1/12/2007 17:00,2.5,-0.6,-6999
1/12/2007 18:00,2.5,-0.7,-6999
1/12/2007 19:00,2.5,-0.7,-6999
1/12/2007 20:00,2.4,-0.7,-6999
1/12/2007 21:00,2.5,-0.7,-6999
1/12/2007 22:00,2.5,-0.7,-6999
1/12/2007 23:00,2.3,-0.7,-6999
1/13/2007 0:00,2.2,-0.7,-6999
1/13/2007 1:00,2.3,-0.7,-6999
1/13/2007 2:00,2.4,-0.7,-6999
1/13/2007 3:00,2.4,-0.7,-6999
1/13/2007 4:00,2.3,-0.8,-6999
1/13/2007 5:00,2.3,-0.8,-6999
1/13/2007 6:00,2.4,-0.8,-6999
1/13/2007 7:00,2.4,-0.8,-6999
1/13/2007 8:00,2.3,-0.8,-6999
1/13/2007 9:00,2.2,-0.8,-6999
1/13/2007 10:00,2.3,-0.8,-6999
1/13/2007 11:00,2.2,-0.7,-6999
1/13/2007 12:00,1.6,-0.7,-6999
1/13/2007 13:00,1.3,-0.7,-6999
1/13/2007 14:00,1.6,-0.7,-6999
1/13/2007 15:00,2.1,-0.7,-6999
1/13/2007 16:00,2.5,-0.7,-6999
1/13/2007 17:00,2.6,-0.7,-6999
1/13/2007 18:00,2.6,-0.7,-6999
1/13/2007 19:00,2.5,-0.7,-6999
1/13/2007 20:00,2.4,-0.7,-6999
1/13/2007 21:00,2.4,-0.7,-6999
1/13/2007 22:00,2.3,-0.7,-6999
1/13/2007 23:00,2.4,-0.7,-6999
1/14/2007 0:00,2.4,-0.7,-6999
1/14/2007 1:00,2.3,-0.7,-6999
1/14/2007 2:00,2.3,-0.7,-6999
1/14/2007 3:00,2.3,-0.7,-6999
1/14/2007 4:00,2.3,-0.7,-6999
1/14/2007 5:00,2.4,-0.7,-6999
1/14/2007 6:00,2.4,-0.7,-6999
1/14/2007 7:00,2.5,-0.7,-6999
1/14/2007 8:00,2.4,-0.7,-6999
1/14/2007 9:00,2.3,-0.7,-6999
1/14/2007 10:00,2.1,-0.7,-6999
1/14/2007 11:00,1.9,-0.6,-6999
1/14/2007 12:00,1.9,-0.6,-6999
1/14/2007 13:00,1.9,-0.5,-6999
1/14/2007 14:00,1.9,-0.5,-6999
1/14/2007 15:00,1.9,-0.4,-6999
1/14/2007 16:00,2.1,-0.3,-6999
1/14/2007 17:00,2.3,-0.2,-6999
1/14/2007 18:00,2.5,-0.2,-6999
1/14/2007 19:00,2.6,-0.2,-6999
1/14/2007 20:00,2.6,-0.2,-6999
1/14/2007 21:00,2.6,-0.3,-6999
1/14/2007 22:00,2.6,-0.3,-6999
1/14/2007 23:00,2.5,-0.3,-6999
1/15/2007 0:00,2.5,-0.3,-6999
1/15/2007 1:00,2.5,-0.3,-6999
1/15/2007 2:00,2.5,-0.4,-6999
1/15/2007 3:00,2.5,-0.4,-6999
1/15/2007 4:00,2.5,-0.4,-6999
1/15/2007 5:00,2.5,-0.4,-6999
1/15/2007 6:00,2.5,-0.4,-6999
1/15/2007 7:00,2.5,-0.4,-6999
1/15/2007 8:00,2.5,-0.4,-6999
1/15/2007 9:00,2.5,-0.4,-6999
1/15/2007 10:00,2.1,-0.4,-6999
1/15/2007 11:00,1.7,-0.3,-6999
1/15/2007 12:00,1.2,-0.2,-6999
1/15/2007 13:00,0.8,-0.1,-6999
1/15/2007 14:00,1.2,0.1,-6999
1/15/2007 15:00,1.7,0.2,-6999
1/15/2007 16:00,1.9,0.2,-6999
1/15/2007 17:00,2.0,0.2,-6999
1/15/2007 18:00,2.1,0.2,-6999
1/15/2007 19:00,2.2,0.1,-6999
1/15/2007 20:00,2.2,0.1,-6999
1/15/2007 21:00,2.2,0.0,-6999
1/15/2007 22:00,2.2,0.0,-6999
1/15/2007 23:00,2.2,-0.1,-6999
1/16/2007 0:00,2.2,-0.1,-6999
1/16/2007 1:00,2.2,-0.1,-6999
1/16/2007 2:00,2.2,-0.1,-6999
1/16/2007 3:00,2.3,-0.2,-6999
1/16/2007 4:00,2.3,-0.2,-6999
1/16/2007 5:00,2.3,-0.2,-6999
1/16/2007 6:00,2.3,-0.2,-6999
1/16/2007 7:00,2.3,-0.2,-6999
1/16/2007 8:00,2.3,-0.2,-6999
1/16/2007 9:00,2.4,-0.3,-6999
1/16/2007 10:00,2.1,-0.2,-6999
1/16/2007 11:00,1.8,-0.1,-6999
1/16/2007 12:00,1.3,0.1,-6999
1/16/2007 13:00,0.8,0.2,-6999
1/16/2007 14:00,1.2,0.3,-6999
1/16/2007 15:00,1.7,0.4,-6999
1/16/2007 16:00,2.1,0.4,-6999
1/16/2007 17:00,2.3,0.4,-6999
1/16/2007 18:00,2.5,0.4,-6999
1/16/2007 19:00,2.6,0.3,-6999
1/16/2007 20:00,2.7,0.2,-6999
1/16/2007 21:00,2.7,0.1,-6999
1/16/2007 22:00,2.7,0.1,-6999
1/16/2007 23:00,2.7,0.0,-6999
1/17/2007 0:00,2.6,0.0,-6999
1/17/2007 1:00,2.6,-0.1,-6999
1/17/2007 2:00,2.7,-0.2,-6999
1/17/2007 3:00,2.7,-0.2,-6999
1/17/2007 4:00,2.7,-0.2,-6999
1/17/2007 5:00,2.7,-0.2,-6999
1/17/2007 6:00,2.7,-0.2,-6999
1/17/2007 7:00,2.6,-0.2,-6999
1/17/2007 8:00,2.5,-0.2,-6999
1/17/2007 9:00,2.4,-0.2,-6999
1/17/2007 10:00,2.1,-0.1,-6999
1/17/2007 11:00,1.8,0.0,-6999
1/17/2007 12:00,1.3,0.1,-6999
1/17/2007 13:00,0.9,0.2,-6999
1/17/2007 14:00,1.3,0.3,-6999
1/17/2007 15:00,1.8,0.4,-6999
1/17/2007 16:00,2.1,0.3,-6999
1/17/2007 17:00,2.2,0.3,-6999
1/17/2007 18:00,2.2,0.2,-6999
1/17/2007 19:00,2.2,0.2,-6999
1/17/2007 20:00,2.2,0.1,-6999
1/17/2007 21:00,2.3,0.1,-6999
1/17/2007 22:00,2.3,0.0,-6999
1/17/2007 23:00,2.2,0.0,-6999
1/18/2007 0:00,2.2,-0.1,-6999
1/18/2007 1:00,2.2,-0.1,-6999
1/18/2007 2:00,2.2,-0.1,-6999
1/18/2007 3:00,2.2,-0.2,-6999
1/18/2007 4:00,2.2,-0.2,-6999
1/18/2007 5:00,2.2,-0.3,-6999
1/18/2007 6:00,2.2,-0.3,-6999
1/18/2007 7:00,2.2,-0.3,-6999
1/18/2007 8:00,2.2,-0.3,-6999
1/18/2007 9:00,2.1,-0.3,-6999
1/18/2007 10:00,1.8,-0.2,-6999
1/18/2007 11:00,1.5,-0.1,-6999
1/18/2007 12:00,1.5,0.1,-6999
1/18/2007 13:00,1.4,0.3,-6999
1/18/2007 14:00,1.3,0.4,-6999
1/18/2007 15:00,1.5,0.5,-6999
1/18/2007 16:00,1.6,0.5,-6999
1/18/2007 17:00,1.7,0.6,-6999
1/18/2007 18:00,1.8,0.6,-6999
1/18/2007 19:00,1.8,0.6,-6999
1/18/2007 20:00,1.8,0.6,-6999
1/18/2007 21:00,1.9,0.6,-6999
1/18/2007 22:00,1.9,0.6,-6999
1/18/2007 23:00,1.9,0.6,-6999
1/19/2007 0:00,2.0,0.6,-6999
1/19/2007 1:00,2.0,0.5,-6999
1/19/2007 2:00,2.1,0.4,-6999
1/19/2007 3:00,2.1,0.4,-6999
1/19/2007 4:00,2.1,0.3,-6999
1/19/2007 5:00,2.1,0.3,-6999
1/19/2007 6:00,2.1,0.2,-6999
1/19/2007 7:00,2.1,0.2,-6999
1/19/2007 8:00,2.1,0.2,-6999
1/19/2007 9:00,2.1,0.2,-6999
1/19/2007 10:00,1.7,0.2,-6999
1/19/2007 11:00,1.6,0.3,-6999
1/19/2007 12:00,1.3,0.5,-6999
1/19/2007 13:00,1.0,0.6,-6999
1/19/2007 14:00,1.3,0.7,-6999
1/19/2007 15:00,1.6,0.8,-6999
1/19/2007 16:00,1.8,0.8,-6999
1/19/2007 17:00,1.9,0.8,-6999
1/19/2007 18:00,2.0,0.8,-6999
1/19/2007 19:00,2.0,0.8,-6999
1/19/2007 20:00,2.1,0.8,-6999
1/19/2007 21:00,2.2,0.7,-6999
1/19/2007 22:00,2.3,0.7,-6999
1/19/2007 23:00,2.3,0.6,-6999
1/20/2007 0:00,2.2,0.6,-6999
1/20/2007 1:00,2.3,0.5,-6999
1/20/2007 2:00,2.4,0.5,-6999
1/20/2007 3:00,2.4,0.4,-6999
1/20/2007 4:00,2.4,0.4,-6999
1/20/2007 5:00,2.3,0.5,-6999
1/20/2007 6:00,2.3,0.6,-6999
1/20/2007 7:00,2.3,0.6,-6999
1/20/2007 8:00,2.2,0.6,-6999
1/20/2007 9:00,2.2,0.7,-6999
1/20/2007 10:00,2.1,0.7,-6999
1/20/2007 11:00,1.9,0.7,-6999
1/20/2007 12:00,1.6,0.8,-6999
1/20/2007 13:00,1.3,0.8,-6999
1/20/2007 14:00,1.6,0.9,-6999
1/20/2007 15:00,1.8,0.9,-6999
1/20/2007 16:00,2.0,0.9,-6999
1/20/2007 17:00,2.1,0.9,-6999
1/20/2007 18:00,2.1,0.8,-6999
1/20/2007 19:00,2.1,0.8,-6999
1/20/2007 20:00,2.1,0.8,-6999
1/20/2007 21:00,2.2,0.8,-6999
1/20/2007 22:00,2.2,0.7,-6999
1/20/2007 23:00,2.1,0.6,-6999
1/21/2007 0:00,2.1,0.6,-6999
1/21/2007 1:00,2.1,0.6,-6999
1/21/2007 2:00,2.1,0.5,-6999
1/21/2007 3:00,2.0,0.5,-6999
1/21/2007 4:00,1.9,0.4,-6999
1/21/2007 5:00,1.9,0.4,-6999
1/21/2007 6:00,1.9,0.3,-6999
1/21/2007 7:00,2.0,0.3,-6999
1/21/2007 8:00,2.0,0.3,-6999
1/21/2007 9:00,2.0,0.3,-6999
1/21/2007 10:00,1.7,0.3,-6999
1/21/2007 11:00,1.6,0.3,-6999
1/21/2007 12:00,1.3,0.5,-6999
1/21/2007 13:00,0.9,0.6,-6999
1/21/2007 14:00,1.0,0.7,-6999
1/21/2007 15:00,1.5,0.8,-6999
1/21/2007 16:00,1.7,0.8,-6999
1/21/2007 17:00,1.9,0.7,-6999
1/21/2007 18:00,2.0,0.7,-6999
1/21/2007 19:00,2.1,0.6,-6999
1/21/2007 20:00,2.1,0.5,-6999
1/21/2007 21:00,2.1,0.4,-6999
1/21/2007 22:00,2.0,0.4,-6999
1/21/2007 23:00,1.9,0.4,-6999
1/22/2007 0:00,2.0,0.4,-6999
1/22/2007 1:00,2.0,0.3,-6999
1/22/2007 2:00,2.0,0.3,-6999
1/22/2007 3:00,2.0,0.3,-6999
1/22/2007 4:00,2.0,0.2,-6999
1/22/2007 5:00,2.0,0.2,-6999
1/22/2007 6:00,1.9,0.3,-6999
1/22/2007 7:00,1.8,0.4,-6999
1/22/2007 8:00,1.8,0.4,-6999
1/22/2007 9:00,1.8,0.5,-6999
1/22/2007 10:00,1.7,0.6,-6999
1/22/2007 11:00,1.5,0.7,-6999
1/22/2007 12:00,1.2,0.9,-6999
1/22/2007 13:00,0.9,1.0,-6999
1/22/2007 14:00,1.0,1.0,-6999
1/22/2007 15:00,1.4,1.0,-6999
1/22/2007 16:00,1.6,1.0,-6999
1/22/2007 17:00,1.8,1.0,-6999
1/22/2007 18:00,1.9,1.0,-6999
1/22/2007 19:00,1.9,0.9,-6999
1/22/2007 20:00,1.9,0.9,-6999
1/22/2007 21:00,1.9,0.8,-6999
1/22/2007 22:00,1.9,0.8,-6999
1/22/2007 23:00,1.9,0.7,-6999
1/23/2007 0:00,1.9,0.7,-6999
1/23/2007 1:00,1.9,0.6,-6999
1/23/2007 2:00,2.0,0.5,-6999
1/23/2007 3:00,2.0,0.5,-6999
1/23/2007 4:00,1.9,0.5,-6999
1/23/2007 5:00,1.9,0.4,-6999
1/23/2007 6:00,1.9,0.4,-6999
1/23/2007 7:00,1.9,0.4,-6999
1/23/2007 8:00,1.9,0.4,-6999
1/23/2007 9:00,1.8,0.4,-6999
1/23/2007 10:00,1.6,0.5,-6999
1/23/2007 11:00,1.5,0.7,-6999
1/23/2007 12:00,1.3,0.9,-6999
1/23/2007 13:00,0.9,1.1,-6999
1/23/2007 14:00,0.9,1.1,-6999
1/23/2007 15:00,1.3,1.1,-6999
1/23/2007 16:00,1.5,1.1,-6999
1/23/2007 17:00,1.7,1.1,-6999
1/23/2007 18:00,1.7,1.1,-6999
1/23/2007 19:00,1.7,1.0,-6999
1/23/2007 20:00,1.8,1.0,-6999
1/23/2007 21:00,1.8,0.9,-6999
1/23/2007 22:00,1.9,0.9,-6999
1/23/2007 23:00,1.8,0.8,-6999
1/24/2007 0:00,1.8,0.8,-6999
1/24/2007 1:00,1.9,0.7,-6999
1/24/2007 2:00,1.9,0.7,-6999
1/24/2007 3:00,1.9,0.6,-6999
1/24/2007 4:00,1.9,0.6,-6999
1/24/2007 5:00,1.9,0.6,-6999
1/24/2007 6:00,1.9,0.5,-6999
1/24/2007 7:00,1.9,0.5,-6999
1/24/2007 8:00,1.9,0.4,-6999
1/24/2007 9:00,1.8,0.4,-6999
1/24/2007 10:00,1.4,0.5,-6999
1/24/2007 11:00,1.1,0.6,-6999
1/24/2007 12:00,1.1,0.9,-6999
1/24/2007 13:00,0.9,1.1,-6999
1/24/2007 14:00,0.9,1.2,-6999
1/24/2007 15:00,1.3,1.2,-6999
1/24/2007 16:00,1.5,1.2,-6999
1/24/2007 17:00,1.7,1.2,-6999
1/24/2007 18:00,1.7,1.2,-6999
1/24/2007 19:00,1.7,1.1,-6999
1/24/2007 20:00,1.8,1.1,-6999
1/24/2007 21:00,1.8,1.0,-6999
1/24/2007 22:00,1.8,1.0,-6999
1/24/2007 23:00,1.8,1.0,-6999
1/25/2007 0:00,1.8,1.0,-6999
1/25/2007 1:00,1.8,1.0,-6999
1/25/2007 2:00,1.8,1.0,-6999
1/25/2007 3:00,1.8,1.0,-6999
1/25/2007 4:00,1.8,1.0,-6999
1/25/2007 5:00,1.8,1.0,-6999
1/25/2007 6:00,1.8,1.0,-6999
1/25/2007 7:00,1.8,1.0,-6999
1/25/2007 8:00,1.8,1.0,-6999
1/25/2007 9:00,1.8,1.0,-6999
1/25/2007 10:00,1.5,1.1,-6999
1/25/2007 11:00,1.3,1.2,-6999
1/25/2007 12:00,1.2,1.5,-6999
1/25/2007 13:00,0.9,1.6,-6999
1/25/2007 14:00,1.0,1.6,-6999
1/25/2007 15:00,1.5,1.6,-6999
1/25/2007 16:00,1.8,1.6,-6999
1/25/2007 17:00,1.9,1.5,-6999
1/25/2007 18:00,2.0,1.4,-6999
1/25/2007 19:00,2.0,1.4,-6999
1/25/2007 20:00,2.0,1.3,-6999
1/25/2007 21:00,2.0,1.2,-6999
1/25/2007 22:00,2.0,1.1,-6999
1/25/2007 23:00,2.1,1.1,-6999
1/26/2007 0:00,2.1,1.0,-6999
1/26/2007 1:00,2.1,0.9,-6999
1/26/2007 2:00,2.1,0.9,-6999
1/26/2007 3:00,2.1,0.8,-6999
1/26/2007 4:00,2.2,0.8,-6999
1/26/2007 5:00,2.2,0.7,-6999
1/26/2007 6:00,2.2,0.7,-6999
1/26/2007 7:00,2.2,0.6,-6999
1/26/2007 8:00,2.2,0.6,-6999
1/26/2007 9:00,2.2,0.5,-6999
1/26/2007 10:00,1.9,0.6,-6999
1/26/2007 11:00,1.6,0.8,-6999
1/26/2007 12:00,1.5,1.1,-6999
1/26/2007 13:00,1.2,1.4,-6999
1/26/2007 14:00,1.3,1.6,-6999
1/26/2007 15:00,1.8,1.6,-6999
1/26/2007 16:00,2.0,1.5,-6999
1/26/2007 17:00,2.2,1.5,-6999
1/26/2007 18:00,2.2,1.4,-6999
1/26/2007 19:00,2.2,1.3,-6999
1/26/2007 20:00,2.3,1.2,-6999
1/26/2007 21:00,2.3,1.2,-6999
1/26/2007 22:00,2.3,1.1,-6999
1/26/2007 23:00,2.3,1.0,-6999
1/27/2007 0:00,2.3,0.9,-6999
1/27/2007 1:00,2.3,0.8,-6999
1/27/2007 2:00,2.3,0.7,-6999
1/27/2007 3:00,2.4,0.6,-6999
1/27/2007 4:00,2.4,0.6,-6999
1/27/2007 5:00,2.4,0.5,-6999
1/27/2007 6:00,2.4,0.4,-6999
1/27/2007 7:00,2.4,0.4,-6999
1/27/2007 8:00,2.4,0.3,-6999
1/27/2007 9:00,2.2,0.3,-6999
1/27/2007 10:00,1.9,0.5,-6999
1/27/2007 11:00,1.6,0.7,-6999
1/27/2007 12:00,1.5,1.0,-6999
1/27/2007 13:00,1.2,1.3,-6999
1/27/2007 14:00,1.3,1.4,-6999
1/27/2007 15:00,1.8,1.5,-6999
1/27/2007 16:00,2.0,1.4,-6999
1/27/2007 17:00,2.2,1.3,-6999
1/27/2007 18:00,2.3,1.1,-6999
1/27/2007 19:00,2.3,0.9,-6999
1/27/2007 20:00,2.3,0.8,-6999
1/27/2007 21:00,2.3,0.7,-6999
1/27/2007 22:00,2.3,0.6,-6999
1/27/2007 23:00,2.3,0.5,-6999
1/28/2007 0:00,2.3,0.4,-6999
1/28/2007 1:00,2.3,0.3,-6999
1/28/2007 2:00,2.3,0.2,-6999
1/28/2007 3:00,2.3,0.1,-6999
1/28/2007 4:00,2.3,0.0,-6999
1/28/2007 5:00,2.2,-0.1,-6999
1/28/2007 6:00,2.3,-0.1,-6999
1/28/2007 7:00,2.3,-0.2,-6999
1/28/2007 8:00,2.2,-0.2,-6999
1/28/2007 9:00,2.2,-0.2,-6999
1/28/2007 10:00,1.8,-0.1,-6999
1/28/2007 11:00,1.5,0.1,-6999
1/28/2007 12:00,1.4,0.5,-6999
1/28/2007 13:00,1.2,0.9,-6999
1/28/2007 14:00,1.3,1.1,-6999
1/28/2007 15:00,1.7,1.2,-6999
1/28/2007 16:00,1.8,1.2,-6999
1/28/2007 17:00,1.8,1.1,-6999
1/28/2007 18:00,1.9,0.9,-6999
1/28/2007 19:00,2.0,0.7,-6999
1/28/2007 20:00,2.0,0.6,-6999
1/28/2007 21:00,2.0,0.5,-6999
1/28/2007 22:00,2.0,0.4,-6999
1/28/2007 23:00,2.0,0.3,-6999
1/29/2007 0:00,2.0,0.2,-6999
1/29/2007 1:00,2.0,0.1,-6999
1/29/2007 2:00,2.0,0.0,-6999
1/29/2007 3:00,2.0,0.0,-6999
1/29/2007 4:00,2.0,-0.1,-6999
1/29/2007 5:00,2.0,-0.1,-6999
1/29/2007 6:00,2.0,-0.2,-6999
1/29/2007 7:00,2.1,-0.2,-6999
1/29/2007 8:00,2.1,-0.2,-6999
1/29/2007 9:00,2.1,-0.2,-6999
1/29/2007 10:00,1.7,-0.1,-6999
1/29/2007 11:00,1.5,0.2,-6999
1/29/2007 12:00,1.5,0.7,-6999
1/29/2007 13:00,1.3,1.1,-6999
1/29/2007 14:00,1.3,1.3,-6999
1/29/2007 15:00,1.6,1.3,-6999
1/29/2007 16:00,1.9,1.3,-6999
1/29/2007 17:00,2.0,1.3,-6999
1/29/2007 18:00,2.1,1.1,-6999
1/29/2007 19:00,2.2,1.0,-6999
1/29/2007 20:00,2.1,1.0,-6999
1/29/2007 21:00,2.1,1.0,-6999
1/29/2007 22:00,2.1,1.0,-6999
1/29/2007 23:00,2.1,1.0,-6999
1/30/2007 0:00,2.2,1.0,-6999
1/30/2007 1:00,2.2,1.0,-6999
1/30/2007 2:00,2.2,1.0,-6999
1/30/2007 3:00,2.3,1.0,-6999
1/30/2007 4:00,2.3,1.0,-6999
1/30/2007 5:00,2.3,0.9,-6999
1/30/2007 6:00,2.4,0.7,-6999
1/30/2007 7:00,2.5,0.6,-6999
1/30/2007 8:00,2.4,0.4,-6999
1/30/2007 9:00,2.4,0.3,-6999
1/30/2007 10:00,2.0,0.4,-6999
1/30/2007 11:00,1.8,0.6,-6999
1/30/2007 12:00,1.7,1.0,-6999
1/30/2007 13:00,1.5,1.4,-6999
1/30/2007 14:00,1.5,1.6,-6999
1/30/2007 15:00,1.8,1.6,-6999
1/30/2007 16:00,2.1,1.5,-6999
1/30/2007 17:00,2.3,1.3,-6999
1/30/2007 18:00,2.4,1.2,-6999
1/30/2007 19:00,2.4,1.0,-6999
1/30/2007 20:00,2.3,1.0,-6999
1/30/2007 21:00,2.4,0.9,-6999
1/30/2007 22:00,2.4,0.9,-6999
1/30/2007 23:00,2.4,0.8,-6999
1/31/2007 0:00,2.3,0.8,-6999
1/31/2007 1:00,2.4,0.7,-6999
1/31/2007 2:00,2.4,0.7,-6999
1/31/2007 3:00,2.4,0.6,-6999
1/31/2007 4:00,2.5,0.4,-6999
1/31/2007 5:00,2.5,0.3,-6999
1/31/2007 6:00,2.4,0.3,-6999
1/31/2007 7:00,2.4,0.2,-6999
1/31/2007 8:00,2.5,0.1,-6999
1/31/2007 9:00,2.4,0.1,-6999
1/31/2007 10:00,2.1,0.2,-6999
1/31/2007 11:00,2.0,0.4,-6999
1/31/2007 12:00,1.8,0.8,-6999
1/31/2007 13:00,1.7,1.1,-6999
1/31/2007 14:00,1.9,1.2,-6999
1/31/2007 15:00,2.0,1.2,-6999
1/31/2007 16:00,2.1,1.2,-6999
1/31/2007 17:00,2.3,1.2,-6999
1/31/2007 18:00,2.4,1.1,-6999
1/31/2007 19:00,2.5,1.0,-6999
1/31/2007 20:00,2.5,0.9,-6999
1/31/2007 21:00,2.6,0.8,-6999
1/31/2007 22:00,2.5,0.7,-6999
1/31/2007 23:00,2.5,0.6,-6999
2/1/2007 0:00,2.6,0.5,-6999
2/1/2007 1:00,2.7,0.3,-6999
2/1/2007 2:00,2.7,0.2,-6999
2/1/2007 3:00,2.7,0.0,-6999
2/1/2007 4:00,2.6,-0.1,-6999
2/1/2007 5:00,2.6,-0.1,-6999
2/1/2007 6:00,2.7,-0.2,-6999
2/1/2007 7:00,2.6,-0.3,-6999
2/1/2007 8:00,2.5,-0.4,-6999
2/1/2007 9:00,2.5,-0.4,-6999
2/1/2007 10:00,2.3,-0.3,-6999
2/1/2007 11:00,2.1,0.0,-6999
2/1/2007 12:00,1.8,0.4,-6999
2/1/2007 13:00,1.7,0.7,-6999